Regional Weather Roundup
Issued by NWS

Home | Current Version | Previous Version | Text Only | Print | Product List | Glossary Off
Versions: 1 2 3 4 5 6 7 8 9 10 11 12 13 14 15 16 17 18 19 20 21 22 23 24 25 26 27 28 29 30 31 32 33 34 35 36 37 38 39 40 41 42 43 44 45 46 47 48 49 50

171
ASUS43 KBIS 131610
RWRND

NORTH DAKOTA REGIONAL WEATHER ROUNDUP
NATIONAL WEATHER SERVICE BISMARCK ND
1000 AM CST SAT FEB 13 2016

NOTE: "FAIR" INDICATES FEW OR NO CLOUDS BELOW 12,000 FEET WITH NO
SIGNIFICANT WEATHER AND/OR OBSTRUCTIONS TO VISIBILITY.


NDZ001>003-009>011-017-131700-
NORTHWEST NORTH DAKOTA

CITY           SKY/WX    TMP DP  RH WIND       PRES   REMARKS
WILLISTON      CLOUDY    16   9  74 SE9       29.99F WCI   4
MINOT          CLOUDY    13   0  56 SE16G25   30.13F WCI  -3
MINOT AFB      CLOUDY    12   3  67 SE18G25   30.13F WCI  -5
$$

NDZ018>021-031>035-040>046-131700-
SOUTHWEST NORTH DAKOTA

CITY           SKY/WX    TMP DP  RH WIND       PRES   REMARKS
BISMARCK       CLOUDY    11  -1  58 SE21      30.22F WCI  -8
DICKINSON      LGT SNOW  11   8  88 SE15G30   29.98S VSB 1   WCI  -5
GARRISON         N/A      9   2  73 SE21G28   30.12F WCI -11
HETTINGER ARPT FOG       14  12  92 SE15G23   30.02F VSB 3/4 WCI  -1
$$

NDZ004>008-012>016-024-026-027-054-131700-
NORTHEAST NORTH DAKOTA

CITY           SKY/WX    TMP DP  RH WIND       PRES   REMARKS
GRAND FORKS    CLOUDY    -3 -11  68 SE14      30.52F WCI -22
GRND FRKS AFB  CLOUDY    -3 -11  70 S15       30.48F WCI -24
DEVILS LAKE    CLOUDY    -4 -11  72 SE13      30.33F WCI -23
$$

NDZ022-023-025-028>030-036>039-047>053-131700-
SOUTHEAST NORTH DAKOTA

CITY           SKY/WX    TMP DP  RH WIND       PRES   REMARKS
FARGO          CLOUDY     0  -9  65 SE13      30.52F WCI -18
JAMESTOWN      CLOUDY     2  -7  66 S16       30.34F WCI -18
$$





USA.gov is the U.S. government's official web portal to all federal, state and local government web resources and services.